TimeCDT,TemperatureF,Dew PointF,Humidity,Sea Level PressureIn,VisibilityMPH,Wind Direction,Wind SpeedMPH,Gust SpeedMPH,PrecipitationIn,Events,Conditions,WindDirDegrees,DateUTC
12:53 AM,66.9,61.0,81,30.04,10.0,East,6.9,-,N/A,,Clear,90,2013-08-15 05:53:00
1:53 AM,64.9,59.0,81,30.04,10.0,ENE,5.8,-,N/A,,Clear,70,2013-08-15 06:53:00
2:53 AM,63.0,59.0,87,30.04,10.0,ENE,4.6,-,N/A,,Clear,70,2013-08-15 07:53:00
3:53 AM,61.0,59.0,93,30.05,10.0,Calm,Calm,-,N/A,,Clear,0,2013-08-15 08:53:00
4:53 AM,60.1,57.9,93,30.05,10.0,Calm,Calm,-,N/A,,Clear,0,2013-08-15 09:53:00
5:53 AM,59.0,57.9,96,30.06,8.0,Calm,Calm,-,N/A,,Clear,0,2013-08-15 10:53:00
6:53 AM,60.1,57.9,93,30.06,10.0,ESE,3.5,-,N/A,,Clear,120,2013-08-15 11:53:00
7:53 AM,64.0,60.1,87,30.08,10.0,Calm,Calm,-,N/A,,Clear,0,2013-08-15 12:53:00
8:53 AM,69.1,57.0,65,30.09,10.0,East,6.9,-,N/A,,Clear,80,2013-08-15 13:53:00
9:53 AM,72.0,57.9,61,30.09,10.0,Variable,6.9,-,N/A,,Clear,0,2013-08-15 14:53:00
10:53 AM,75.9,57.9,54,30.09,10.0,East,8.1,-,N/A,,Clear,100,2013-08-15 15:53:00
11:53 AM,77.0,57.9,52,30.07,10.0,East,4.6,-,N/A,,Clear,100,2013-08-15 16:53:00
12:53 PM,79.0,60.1,52,30.05,10.0,SE,4.6,-,N/A,,Clear,140,2013-08-15 17:53:00
1:53 PM,80.1,60.1,50,30.03,10.0,SW,5.8,-,N/A,,Clear,230,2013-08-15 18:53:00
2:53 PM,82.9,59.0,44,30.01,10.0,NNW,5.8,-,N/A,,Clear,330,2013-08-15 19:53:00
3:53 PM,84.0,59.0,43,29.98,10.0,East,4.6,-,N/A,,Clear,90,2013-08-15 20:53:00
4:53 PM,84.9,57.9,40,29.96,10.0,NE,5.8,-,N/A,,Clear,50,2013-08-15 21:53:00
5:53 PM,84.0,59.0,43,29.98,10.0,NE,4.6,-,N/A,,Clear,40,2013-08-15 22:53:00
6:53 PM,81.0,62.1,52,29.97,10.0,ENE,3.5,-,N/A,,Clear,70,2013-08-15 23:53:00
7:53 PM,75.9,64.0,67,29.97,10.0,SE,3.5,-,N/A,,Clear,140,2013-08-16 00:53:00
8:53 PM,70.0,64.0,81,29.98,10.0,ENE,3.5,-,N/A,,Clear,60,2013-08-16 01:53:00
9:53 PM,66.9,63.0,87,30.02,10.0,Calm,Calm,-,N/A,,Clear,0,2013-08-16 02:53:00
10:53 PM,64.9,62.1,90,30.01,10.0,ESE,3.5,-,N/A,,Clear,120,2013-08-16 03:53:00